{"data":{"norad_id":61588,"epoch":"2026-09-21T07:24:09.883008Z","epoch_age_seconds":122418,"freshness":"FRESH","line1":"1 61588U 24187Q   26264.30844772  .00000345  00000+0  21360-4 0  9992","line2":"2 61588  53.1590 232.1617 0001521  85.4906 274.6270 15.34388777109096","mean_motion":15.34388777,"eccentricity":0.0001521,"inclination_deg":53.159,"raan_deg":232.1617,"arg_perigee_deg":85.4906,"mean_anomaly_deg":274.627,"bstar":2.136e-5,"rev_number":10909,"period_min":93.848444513225,"perigee_km":461.69610065738,"apogee_km":463.77709440575,"semimajor_km":6840.8735975316,"source":"CELESTRAK","updated_at":"2026-09-22T09:00:49.393075Z"}}